Regional & State Weather Roundups


470 
ASUS41 KLWX 260210
RWRLWX
REGIONAL WEATHER ROUNDUP
NATIONAL WEATHER SERVICE BALTIMORE MD/WASHINGTON DC
900 PM EST SUN JAN 25 2015
Note: "FAIR" indicates few or no clouds below 12,000 feet
with no significant weather and/or obstructions to visibility.
 TC=TEMPERATURE CELSIUS
 * =Non NWS site. Station does not report precipitation (e.g. rain,
    snow, etc.), thunder, or fog.
DCZ001-MDZ009-015-VAZ040>042-051-053>054-260300-
WASHINGTON METRO
  
CITY           SKY/WX    TMP DP  RH WIND       PRES   REMARKS
WASHINGTON NAT CLOUDY    48  31  51 CALM      29.87R                  
DULLES         CLOUDY    41  32  70 CALM      29.85R                  
ANDREWS AFB    CLOUDY    43  32  66 E3        29.85S                  
FT BELVOIR     CLOUDY    41  35  80 CALM      29.87R                  
QUANTICO       CLOUDY    43  34  70 CALM      29.87R                  
COLLEGE PARK*  CLOUDY    43  34  70 CALM      29.86S                  
LEESBURG*      CLOUDY    41  36  81 CALM      29.86S                  
MANASSAS*      CLOUDY    39  37  93 CALM      29.85R                  
GAITHERSBURG*  CLOUDY    41  30  65 CALM      29.89R                  
$$
MDZ006>007-011-014-260300-
BALTIMORE METRO
  
CITY           SKY/WX    TMP DP  RH WIND       PRES   REMARKS
BWI AIRPORT    CLOUDY    42  32  67 E6        29.87R                  
MD SCIENCE CTR   N/A     44  33  65 MISG      29.88R                  
MARTIN STATE   CLOUDY    43  37  81 CALM      29.90R                  
ANNAPOLIS      CLOUDY    40  33  76 E5        29.88S                  
FORT MEADE*    CLOUDY    41  32  70 CALM      29.90R                  
$$
MDZ012-015-019>023-260300-
MARYLAND EASTERN SHORE
  
CITY           SKY/WX    TMP DP  RH WIND       PRES   REMARKS
OCEAN CITY     CLOUDY    39  34  82 SW3       29.91S                  
SALISBURY      CLOUDY    40  31  70 S6        29.90R                  
BAY BRIDGE AP*   N/A     43  32  65 SE6       29.89R                  
CAMBRIDGE*     CLOUDY    41  32  70 S5        29.88R                  
EASTON*        CLOUDY    45  34  65 SE3       29.92S                  
$$
MDZ017>025-260300-
SOUTHERN MARYLAND
  
CITY           SKY/WX    TMP DP  RH WIND       PRES   REMARKS
PATUXENT RIVER CLOUDY    42  31  64 S6        29.87R                  
ST INIGOES     CLOUDY    43  31  62 SE9       29.87R                  
LEONARDTOWN*   CLOUDY    41  32  70 SE6       29.88S                  
$$
MDZ003>005-260300-
NORTH CENTRAL MARYLAND
  
CITY           SKY/WX    TMP DP  RH WIND       PRES   REMARKS
FREDERICK*     CLOUDY    39  34  81 N3        29.89R                  
HAGERSTOWN APT LGT RAIN  37  34  89 NE7       29.84F FOG              
WESTMINSTER*   RAIN      37  36  93 CALM      29.86S                  
$$
MDZ501>502-260300-
WESTERN MARYLAND
  
CITY           SKY/WX    TMP DP  RH WIND       PRES   REMARKS
OAKLAND*       FOG       32 N/A N/A SE6       29.72S VSB 1/4          
CUMBERLAND*    CLOUDY    37  36  93 N6        29.85S                  
$$
VAZ025>031-260300-
SHENANDOAH VALLEY
  
CITY           SKY/WX    TMP DP  RH WIND       PRES   REMARKS
WINCHESTER*    CLOUDY    41  32  70 CALM      29.82F                  
FRONT ROYAL*   CLOUDY    37  32  81 CALM      29.80F                  
LURAY*         FAIR      36  36 100 CALM      29.80F                  
NEW MARKET*    FAIR      33  32  94 CALM      29.79S                  
STAUNTON*      MOCLDY    37  32  83 CALM      29.81R                  
WAYNESBORO*    FAIR      40  31  69 SE6       29.78S                  
$$
WVZ021-048>050-054>055-260300-
EASTERN WEST VIRGINIA PANHANDLE
  
CITY           SKY/WX    TMP DP  RH WIND       PRES   REMARKS
MARTINSBURG    CLOUDY    39  36  89 N6        29.83S                  
PETERSBURG*    CLOUDY    37  35  91 NW3       29.80S                  
$$
VAZ036>039-050-260300-
CENTRAL FOOTHILLS
  
CITY           SKY/WX    TMP DP  RH WIND       PRES   REMARKS
CHARLOTTESVILL CLOUDY    39  32  76 N3        29.81F                  
CULPEPER*      CLOUDY    39  36  87 CALM      29.83F                  
ORANGE*        CLOUDY    36  34  93 CALM      29.84F                  
GORDONSVILLE*  FAIR      35  32  90 CALM      29.81F                  
WARRENTON*     CLOUDY    38  37  95 CALM      29.83F                  
$$
VAZ055>057-260300-
NORTH AND CENTRAL PIEDMONT
  
CITY           SKY/WX    TMP DP  RH WIND       PRES   REMARKS
FREDERICKSBRG* CLOUDY    40  36  85 CALM      29.84S                  
STAFFORD*      CLOUDY    42  32  67 CALM      29.88F                  
$$
NCZ024-NYZ072-PAZ021-071-VAZ022-071-260300-
OTHER REGIONAL OBSERVATIONS
  
CITY           SKY/WX    TMP DP  RH WIND       PRES   REMARKS
NEW YORK CITY  CLOUDY    34   9  35 VRB5      29.98R                  
PHILADELPHIA   LGT RAIN  39  34  82 NE5       29.93R                  
PITTSBURGH     LGT SNOW  31  30  96 NE7       29.79R VSB 1            
ROANOKE        MOCLDY    45  30  55 E7        29.79S                  
RICHMOND       CLOUDY    42  35  76 SE7       29.84F                  
RALEIGH        PTCLDY    44  32  62 SE3       29.83F                  
$$
ANZ530>537-260300-
MARINE OBSERVATIONS
  
STATION/POSITION TIME  TEMP    WIND        PRES
                       AIR SEA DIR/SP/G
                 (UTC) (F)     (DEG/KT/KT) (MB)
THOMAS PT LIGHT  0200   42 37  140/  8/  8 1012.9R
BALT KEY BRIDGE  0200   43      80/  6/  6 1011.6R
COVE POINT       0200   39     190/ 13/ 14 1011.5R
LEWISETTA        0200   42 39  180/  7/  8 1011.4S
SOLOMONS ISLAND  0200      39                N/A
PINEY POINT      0200          160/  7/  7   N/A
$$